Weather History for K2WX - August, 2014

Change the Weather History Date:

Monday, August 11, 2014

  Actual Average Record
Temperature  
Mean Temperature 69 °F 72 °F  
Max Temperature 86 °F 86 °F 99 °F (2006)
Min Temperature 52 °F 57 °F 42 °F (2004)
Degree Days  
Heating Degree Days 0 1  
Month to date heating degree days 0 6  
Since 1 June heating degree days 151 140  
Since 1 July heating degree days 16 26  
Cooling Degree Days 4 7  
Month to date cooling degree days 63 86  
Year to date cooling degree days 268 361  
Since 1 June cooling degree days 238 355  
Growing Degree Days 18 (Base 50)    
Moisture  
Dew Point 47 °F    
Average Humidity 52    
Maximum Humidity 77    
Minimum Humidity 26    
Precipitation  
Precipitation 0.00 in 0.05 in 0.28 in (2011)
Month to date precipitation 0.18 0.62  
Year to date precipitation 10.97 11.35  
Sea Level Pressure  
Sea Level Pressure 30.14 in    
Wind  
Wind Speed 7 mph (SE)    
Max Wind Speed 13 mph    
Max Gust Speed 16 mph    
T = Trace of Precipitation, MM = Missing Value Source: NWS Daily Summary

Daily Weather History Graph

Daily Weather History Graph

Search for Another Location

Airport or City:

Trip Planner

Search our weather history database for the weather conditions in past years. The results will help you decide how hot, cold, wet, or windy it might be!

Date:

Astronomy

Aug. 11, 2014 Rise Set
Actual Time 5:49 AM MDT 8:08 PM MDT
Civil Twilight 5:16 AM MDT 8:40 PM MDT
Nautical Twilight 4:35 AM MDT 9:21 PM MDT
Astronomical Twilight 3:49 AM MDT 10:07 PM MDT
Moon 8:30 PM MDT (8/11) 7:03 AM MDT (8/11)
Length of Visible Light 15h 23m
Length of Day
14h 18m
Full, 98% of the Moon is Illuminated
Aug 11
Full
Aug 17
Last Quarter
Aug 25
New
Sep 2
First Quarter
Sep 8
Full

Hourly Weather History & Observations

Time (MDT) Temp. Dew Point Humidity Pressure Visibility Wind Dir Wind Speed Gust Speed Precip Events Conditions
12:56 AM 57.9 °F 48.9 °F 72% 30.19 in - SW 3.5 mph - N/A   Unknown
1:56 AM 59.0 °F 48.0 °F 67% 30.18 in - South 3.5 mph - N/A   Unknown
2:56 AM 57.9 °F 46.9 °F 67% 30.18 in - South 3.5 mph - N/A   Unknown
3:56 AM 57.0 °F 46.0 °F 67% 30.19 in - SSE 3.5 mph - N/A   Unknown
4:56 AM 55.9 °F 46.0 °F 69% 30.18 in - SSE 4.6 mph - N/A   Unknown
5:56 AM 53.1 °F 46.0 °F 77% 30.19 in - SE 3.5 mph - N/A   Unknown
6:56 AM 55.0 °F 46.9 °F 74% 30.20 in - ENE 4.6 mph - N/A   Unknown
7:56 AM 60.1 °F 46.9 °F 62% 30.20 in - SE 4.6 mph - N/A   Unknown
8:56 AM 66.0 °F 50.0 °F 56% 30.20 in - South 4.6 mph - N/A   Unknown
9:56 AM 73.9 °F 48.0 °F 40% 30.18 in - SSE 10.4 mph - N/A   Unknown
10:56 AM 77.0 °F 48.0 °F 36% 30.18 in - South 5.8 mph - N/A   Unknown
11:56 AM 80.1 °F 46.9 °F 31% 30.16 in - East 6.9 mph - N/A   Unknown
12:56 PM 84.0 °F 46.9 °F 27% 30.15 in - SSE 9.2 mph - N/A   Unknown
1:56 PM 82.9 °F 45.0 °F 26% 30.14 in - Variable 5.8 mph - N/A   Unknown
2:56 PM 84.0 °F 46.0 °F 26% 30.12 in - Variable 3.5 mph - N/A   Unknown
3:56 PM 84.9 °F 46.0 °F 26% 30.10 in - South 6.9 mph - N/A   Unknown
4:56 PM 84.0 °F 46.0 °F 26% 30.10 in - South 9.2 mph - N/A   Unknown
5:56 PM 82.9 °F 46.0 °F 27% 30.09 in - ENE 4.6 mph - N/A   Unknown
6:56 PM 80.1 °F 46.9 °F 31% 30.09 in - ESE 9.2 mph - N/A   Unknown
7:56 PM 73.9 °F 48.0 °F 40% 30.09 in - East 10.4 mph - N/A   Unknown
8:56 PM 69.1 °F 48.0 °F 47% 30.09 in - East 10.4 mph - N/A   Unknown
9:56 PM 66.9 °F 48.0 °F 51% 30.09 in - ESE 11.5 mph - N/A   Unknown
10:56 PM 64.9 °F 46.9 °F 52% 30.09 in - ESE 9.2 mph - N/A   Unknown
11:56 PM 61.0 °F 48.0 °F 62% 30.08 in - SSE 9.2 mph - N/A   Unknown